^^
North Bend WA Weather Station Historical Data
 
Daily Summary for November 15, 2019 Units:  English    Metric   Both
Daily Weekly Monthly Yearly Custom
  Current: High: Low: Average:
Temperature: 50 °F 50 °F 45 °F 47.7 °F
Dew Point: 46 °F 46 °F 39 °F 41.2 °F
Humidity: 89% 90% 66% 78%
Wind Speed: 3mph 8mph 1mph 4.9mph
Wind Gust: 13mph 18mph - -
WindWSW - - ESE
Pressure: 30.01 in 30.02 in 29.95 in -
Precipitation: 0.24 in      
Historical Graphs
 
 
Tabular Data for November 15, 2019
Time Temperature Dew Point Pressure Wind Wind Speed Wind Gust Humidity Rainfall Rate (Hourly) solar
00:04 50 °F 40 °F 29.98 in ESE 3 mph 9 mph 68% 0 in 0 W/m2
00:09 50 °F 40 °F 29.98 in ESE 3 mph 9 mph 67% 0 in 0 W/m2
00:14 50 °F 40 °F 29.98 in SE 3 mph 6 mph 67% 0 in 0 W/m2
00:19 50 °F 40 °F 29.98 in ESE 3 mph 14 mph 66% 0 in 0 W/m2
00:24 50 °F 40 °F 29.98 in ESE 3 mph 14 mph 66% 0 in 0 W/m2
00:29 50 °F 39 °F 29.98 in ESE 3 mph 7 mph 66% 0 in 0 W/m2
00:34 50 °F 40 °F 29.98 in ESE 4 mph 10 mph 67% 0 in 0 W/m2
00:39 50 °F 40 °F 29.98 in E 5 mph 13 mph 67% 0 in 0 W/m2
00:44 50 °F 40 °F 29.98 in ESE 3 mph 13 mph 66% 0 in 0 W/m2
00:49 50 °F 40 °F 29.98 in ESE 4 mph 7 mph 66% 0 in 0 W/m2
00:54 50 °F 40 °F 29.98 in E 2 mph 7 mph 66% 0 in 0 W/m2
00:59 50 °F 40 °F 29.98 in ESE 3 mph 10 mph 67% 0 in 0 W/m2
01:04 50 °F 40 °F 29.98 in E 4 mph 10 mph 66% 0 in 0 W/m2
01:09 50 °F 40 °F 29.98 in SE 4 mph 9 mph 66% 0 in 0 W/m2
01:14 50 °F 40 °F 29.98 in ESE 6 mph 14 mph 67% 0 in 0 W/m2
01:19 50 °F 40 °F 29.98 in E 5 mph 14 mph 67% 0 in 0 W/m2
01:24 50 °F 40 °F 29.98 in ESE 4 mph 11 mph 66% 0 in 0 W/m2
01:29 50 °F 39 °F 29.98 in ESE 5 mph 13 mph 66% 0 in 0 W/m2
01:34 50 °F 40 °F 29.98 in ESE 4 mph 13 mph 66% 0 in 0 W/m2
01:39 50 °F 40 °F 29.98 in SE 6 mph 12 mph 67% 0 in 0 W/m2
01:44 50 °F 40 °F 29.98 in ESE 8 mph 15 mph 67% 0 in 0 W/m2
01:49 50 °F 40 °F 29.98 in ESE 5 mph 15 mph 67% 0 in 0 W/m2
01:54 50 °F 40 °F 29.98 in ESE 3 mph 13 mph 68% 0 in 0 W/m2
01:59 50 °F 40 °F 29.98 in SE 6 mph 10 mph 68% 0 in 0 W/m2
02:04 50 °F 40 °F 29.99 in ESE 4 mph 10 mph 68% 0 in 0 W/m2
02:09 50 °F 40 °F 29.99 in ESE 4 mph 9 mph 67% 0 in 0 W/m2
02:14 50 °F 39 °F 29.98 in ESE 6 mph 12 mph 67% 0 in 0 W/m2
02:19 50 °F 39 °F 29.98 in ESE 7 mph 14 mph 67% 0 in 0 W/m2
02:24 50 °F 39 °F 29.98 in ESE 7 mph 14 mph 67% 0 in 0 W/m2
02:29 50 °F 39 °F 29.98 in ESE 5 mph 12 mph 67% 0 in 0 W/m2
02:34 49 °F 39 °F 29.97 in SE 7 mph 18 mph 68% 0 in 0 W/m2
02:39 49 °F 39 °F 29.97 in ESE 7 mph 18 mph 68% 0 in 0 W/m2
02:44 49 °F 39 °F 29.97 in ESE 4 mph 14 mph 68% 0 in 0 W/m2
02:49 49 °F 39 °F 29.97 in SE 5 mph 14 mph 68% 0 in 0 W/m2
02:54 49 °F 39 °F 29.97 in SE 6 mph 14 mph 69% 0 in 0 W/m2
02:59 48 °F 39 °F 29.97 in SE 7 mph 13 mph 70% 0 in 0 W/m2
03:04 48 °F 39 °F 29.97 in SE 7 mph 14 mph 71% 0 in 0 W/m2
03:09 48 °F 39 °F 29.97 in SE 6 mph 14 mph 71% 0 in 0 W/m2
03:14 48 °F 39 °F 29.96 in ESE 6 mph 12 mph 71% 0 in 0 W/m2
03:19 48 °F 39 °F 29.97 in ESE 6 mph 12 mph 70% 0 in 0 W/m2
03:24 48 °F 39 °F 29.97 in ESE 6 mph 12 mph 70% 0 in 0 W/m2
03:29 48 °F 39 °F 29.96 in ESE 6 mph 12 mph 70% 0 in 0 W/m2
03:34 48 °F 39 °F 29.96 in ESE 6 mph 12 mph 70% 0 in 0 W/m2
03:39 48 °F 39 °F 29.96 in ESE 7 mph 13 mph 70% 0 in 0 W/m2
03:44 48 °F 39 °F 29.96 in ESE 6 mph 13 mph 70% 0 in 0 W/m2
03:49 48 °F 39 °F 29.96 in ESE 7 mph 12 mph 71% 0 in 0 W/m2
03:54 48 °F 39 °F 29.96 in ESE 7 mph 12 mph 70% 0 in 0 W/m2
03:59 48 °F 39 °F 29.96 in SE 6 mph 12 mph 70% 0 in 0 W/m2
04:04 48 °F 39 °F 29.96 in ESE 7 mph 13 mph 71% 0 in 0 W/m2
04:09 48 °F 39 °F 29.96 in ESE 8 mph 13 mph 71% 0 in 0 W/m2
04:14 48 °F 39 °F 29.95 in ESE 7 mph 12 mph 70% 0 in 0 W/m2
04:19 48 °F 39 °F 29.95 in ESE 8 mph 16 mph 71% 0 in 0 W/m2
04:24 48 °F 40 °F 29.95 in SE 7 mph 16 mph 71% 0 in 0 W/m2
04:29 48 °F 39 °F 29.95 in SE 5 mph 15 mph 71% 0 in 0 W/m2
04:34 48 °F 39 °F 29.95 in ESE 7 mph 12 mph 71% 0 in 0 W/m2
04:39 48 °F 40 °F 29.95 in SE 6 mph 12 mph 72% 0 in 0 W/m2
04:44 47 °F 40 °F 29.95 in ESE 6 mph 12 mph 75% 0 in 0 W/m2
04:49 47 °F 40 °F 29.95 in SE 6 mph 12 mph 76% 0 in 0 W/m2
04:54 47 °F 40 °F 29.95 in SE 7 mph 13 mph 77% 0 in 0 W/m2
04:59 47 °F 40 °F 29.95 in SE 6 mph 13 mph 78% 0 in 0 W/m2
05:04 46 °F 40 °F 29.95 in ESE 5 mph 10 mph 79% 0 in 0 W/m2
05:09 46 °F 40 °F 29.95 in ESE 6 mph 11 mph 80% 0.01 in 0 W/m2
05:14 46 °F 41 °F 29.95 in ESE 6 mph 13 mph 81% 0.01 in 0 W/m2
05:19 46 °F 41 °F 29.96 in ESE 6 mph 13 mph 82% 0.02 in 0 W/m2
05:24 46 °F 41 °F 29.96 in ESE 5 mph 12 mph 83% 0.03 in 0 W/m2
05:29 45 °F 41 °F 29.96 in ESE 4 mph 9 mph 84% 0.04 in 0 W/m2
05:34 45 °F 41 °F 29.96 in ESE 5 mph 10 mph 85% 0.06 in 0 W/m2
05:39 45 °F 41 °F 29.96 in ESE 6 mph 12 mph 85% 0.07 in 0 W/m2
05:44 45 °F 41 °F 29.96 in ESE 5 mph 13 mph 86% 0.09 in 0 W/m2
05:49 45 °F 41 °F 29.96 in ESE 5 mph 13 mph 86% 0.1 in 0 W/m2
05:54 45 °F 41 °F 29.95 in ESE 7 mph 15 mph 87% 0.11 in 0 W/m2
05:59 45 °F 41 °F 29.96 in ESE 8 mph 15 mph 87% 0.13 in 0 W/m2
06:04 45 °F 41 °F 29.96 in ESE 6 mph 14 mph 87% 0.14 in 0 W/m2
06:09 45 °F 41 °F 29.96 in ESE 5 mph 12 mph 88% 0.15 in 0 W/m2
06:14 45 °F 41 °F 29.96 in ESE 5 mph 12 mph 88% 0.16 in 0 W/m2
06:19 45 °F 41 °F 29.96 in ESE 5 mph 12 mph 88% 0.16 in 0 W/m2
06:24 45 °F 41 °F 29.97 in ESE 5 mph 10 mph 88% 0.15 in 0 W/m2
06:29 45 °F 42 °F 29.97 in ESE 5 mph 12 mph 88% 0.16 in 0 W/m2
06:34 45 °F 42 °F 29.97 in NE 2 mph 12 mph 89% 0.14 in 0 W/m2
06:39 45 °F 42 °F 29.97 in SSE 1 mph 6 mph 89% 0.14 in 0 W/m2
06:44 45 °F 42 °F 29.97 in ENE 2 mph 6 mph 89% 0.12 in 0 W/m2
06:49 45 °F 42 °F 29.97 in NNE 1 mph 5 mph 89% 0.11 in 0 W/m2
06:54 45 °F 42 °F 29.97 in ENE 1 mph 5 mph 89% 0.1 in 0 W/m2
06:59 45 °F 42 °F 29.97 in E 2 mph 7 mph 89% 0.09 in 0 W/m2
07:04 45 °F 42 °F 29.97 in E 2 mph 8 mph 90% 0.08 in 0 W/m2
07:09 45 °F 43 °F 29.98 in SSE 3 mph 9 mph 90% 0.06 in 0 W/m2
07:14 46 °F 43 °F 29.98 in E 4 mph 9 mph 90% 0.05 in 0 W/m2
07:19 46 °F 43 °F 29.98 in SSE 3 mph 7 mph 90% 0.04 in 0 W/m2
07:24 46 °F 43 °F 29.98 in SE 4 mph 12 mph 90% 0.04 in 0 W/m2
07:29 46 °F 43 °F 29.99 in SE 5 mph 14 mph 90% 0.03 in 0 W/m2
07:34 46 °F 43 °F 29.99 in ESE 6 mph 14 mph 90% 0.02 in 0 W/m2
07:39 46 °F 43 °F 29.99 in ESE 4 mph 14 mph 90% 0.01 in 0 W/m2
07:44 46 °F 43 °F 29.99 in SE 4 mph 12 mph 90% 0.01 in 0 W/m2
07:49 46 °F 43 °F 29.99 in SE 5 mph 12 mph 90% 0.01 in 0 W/m2
07:54 46 °F 43 °F 29.99 in ESE 5 mph 12 mph 90% 0.01 in 4.8 W/m2
07:59 46 °F 43 °F 29.99 in ESE 7 mph 15 mph 90% 0.01 in 9 W/m2
08:04 46 °F 43 °F 29.99 in ESE 8 mph 15 mph 90% 0.01 in 9.6 W/m2
08:09 46 °F 43 °F 30 in SE 7 mph 13 mph 90% 0.01 in 17.2 W/m2
08:14 46 °F 43 °F 29.99 in E 4 mph 12 mph 90% 0.01 in 22.9 W/m2
08:19 46 °F 44 °F 30 in ESE 6 mph 13 mph 90% 0.01 in 39.9 W/m2
08:24 47 °F 44 °F 29.99 in E 5 mph 14 mph 90% 0.01 in 43.6 W/m2
08:29 47 °F 44 °F 29.99 in ESE 7 mph 14 mph 89% 0.01 in 52.8 W/m2
08:34 47 °F 44 °F 29.99 in E 5 mph 14 mph 89% 0.01 in 48.8 W/m2
08:39 47 °F 44 °F 29.99 in ESE 4 mph 14 mph 89% 0.01 in 55.9 W/m2
08:44 48 °F 44 °F 30 in ESE 4 mph 14 mph 89% 0.01 in 51.9 W/m2
08:49 48 °F 44 °F 30 in E 4 mph 12 mph 89% 0.01 in 45.9 W/m2
08:54 48 °F 45 °F 30 in ESE 3 mph 12 mph 89% 0.01 in 47.2 W/m2
08:59 48 °F 45 °F 30 in E 3 mph 10 mph 89% 0 in 63 W/m2
09:04 48 °F 45 °F 30 in ESE 2 mph 10 mph 89% 0 in 118.6 W/m2
09:09 48 °F 45 °F 30.01 in SE 3 mph 10 mph 89% 0.01 in 97.6 W/m2
09:14 48 °F 45 °F 30.01 in E 3 mph 10 mph 89% 0.01 in 83.9 W/m2
09:19 49 °F 46 °F 30 in ESE 3 mph 7 mph 89% 0.01 in 93.2 W/m2
09:24 49 °F 46 °F 30.01 in SSE 2 mph 7 mph 89% 0.01 in 110 W/m2
09:29 49 °F 46 °F 30.01 in ESE 4 mph 7 mph 89% 0.01 in 118.8 W/m2
09:34 49 °F 45 °F 30.02 in SE 2 mph 7 mph 89% 0.01 in 81.5 W/m2
09:39 49 °F 46 °F 30.01 in E 3 mph 9 mph 89% 0.01 in 156.6 W/m2
09:44 49 °F 46 °F 30.01 in ESE 6 mph 13 mph 89% 0.01 in 166.8 W/m2
09:49 50 °F 46 °F 30.01 in WSW 3 mph 13 mph 89% 0.01 in 106.6 W/m2
North Bend WA Weather
Compliments of Weather Underground - 4 mb